FW4300 Weather Reports


Display with metric or nautical units.
time (UTC)temp
F
wind
direction
speed
MPH
gust
MPH
rain 1hr
in
rain 24hr
in
rain mn
in
humidity
%
barometer
mb
20260906000513 80 221 0.0 3.0 0.00 0.01 0.01 68 1015.2
20260906000014 80 213 0.0 2.0 0.00 0.01 0.01 68 1015.2
20260905235513 80 161 0.0 1.0 0.00 0.01 0.01 68 1015.3
20260905235018 80 161 0.0 1.0 0.00 0.01 0.01 68 1015.2
20260905234513 80 146 0.0 1.0 0.00 0.01 0.01 68 1015.1
20260905234017 80 136 0.0 3.0 0.00 0.01 0.01 68 1015.2
20260905233512 80 93 0.0 3.0 0.00 0.01 0.01 68 1015.1
20260905233014 80 191 0.0 1.0 0.00 0.01 0.01 68 1015.0
20260905232513 81 166 0.0 1.0 0.00 0.01 0.01 68 1015.0
20260905232014 81 131 0.0 3.0 0.00 0.01 0.01 68 1014.9
20260905231513 81 143 1.0 3.0 0.00 0.01 0.01 68 1014.8
20260905231011 81 117 1.0 3.0 0.00 0.01 0.01 67 1014.8
20260905230511 81 146 1.0 3.0 0.00 0.01 0.01 67 1014.8
20260905230012 81 120 1.0 3.0 0.00 0.01 0.01 68 1015.0
20260905225511 81 143 0.0 4.0 0.00 0.01 0.01 68 1015.0
20260905225010 81 148 1.0 5.0 0.00 0.01 0.01 67 1015.0
20260905224510 82 106 1.0 7.0 0.00 0.01 0.01 67 1015.0
20260905224009 82 100 3.0 7.0 0.00 0.01 0.01 67 1014.9
20260905223509 82 130 3.0 7.0 0.00 0.01 0.01 67 1014.8
20260905223028 83 131 1.0 6.0 0.00 0.01 0.01 66 1014.9
20260905222509 83 124 2.0 6.0 0.00 0.01 0.01 66 1014.8
20260905222009 84 177 3.0 6.0 0.00 0.01 0.01 66 1014.7
20260905221527 84 174 1.0 6.0 0.00 0.01 0.01 65 1014.7
20260905221008 85 152 2.0 7.0 0.00 0.01 0.01 65 1014.6
20260905220507 85 184 3.0 8.0 0.00 0.01 0.01 64 1014.6
20260905220007 85 169 4.0 8.0 0.00 0.01 0.01 64 1014.6
20260905215511 85 120 3.0 7.0 0.00 0.01 0.01 63 1014.5
20260905215007 86 133 2.0 6.0 0.00 0.01 0.01 63 1014.6
20260905214506 85 107 3.0 7.0 0.00 0.01 0.01 63 1014.6
20260905214007 85 122 2.0 8.0 0.00 0.01 0.01 63 1014.6
20260905213506 85 131 3.0 8.0 0.00 0.01 0.01 63 1014.5
20260905213008 86 73 2.0 7.0 0.00 0.01 0.01 64 1014.5
20260905212505 86 141 2.0 7.0 0.00 0.01 0.01 64 1014.6
20260905212005 86 134 3.0 7.0 0.00 0.01 0.01 64 1014.6
20260905211512 86 96 2.0 8.0 0.00 0.01 0.01 64 1014.4
20260905211006 87 133 3.0 8.0 0.00 0.01 0.01 63 1014.5
20260905210505 87 155 3.0 8.0 0.00 0.01 0.01 61 1014.4
20260905210006 87 117 3.0 8.0 0.00 0.01 0.01 61 1014.2
20260905205504 86 197 4.0 10.0 0.00 0.01 0.01 61 1014.3
20260905205004 86 109 4.0 10.0 0.00 0.01 0.01 62 1014.1
20260905204605 86 66 3.0 8.0 0.00 0.01 0.01 63 1014.0
20260905204002 86 154 2.0 11.0 0.00 0.01 0.01 64 1014.1
20260905203503 87 127 5.0 9.0 0.00 0.01 0.01 63 1014.2
20260905203002 88 115 5.0 9.0 0.00 0.01 0.01 62 1014.1
20260905202500 88 165 3.0 8.0 0.00 0.01 0.01 62 1014.0
20260905202002 88 115 3.0 9.0 0.00 0.01 0.01 62 1014.0
20260905201503 88 132 4.0 10.0 0.00 0.01 0.01 62 1014.0
20260905201100 88 181 4.0 11.0 0.00 0.01 0.01 62 1013.9
20260905200601 88 203 2.0 10.0 0.00 0.01 0.01 63 1013.7
20260905200135 88 165 5.0 10.0 0.00 0.01 0.01 62 1013.7
20260905195601 88 192 5.0 10.0 0.00 0.01 0.01 62 1013.6
20260905195059 88 122 4.0 9.0 0.00 0.01 0.01 62 1013.6
20260905194610 88 118 4.0 10.0 0.00 0.01 0.01 62 1013.5
20260905194059 89 101 4.0 10.0 0.00 0.01 0.01 61 1013.6
20260905193600 89 224 4.0 8.0 0.00 0.01 0.01 60 1013.6
20260905193059 89 129 4.0 8.0 0.00 0.01 0.01 59 1013.7
20260905192558 89 108 3.0 11.0 0.00 0.01 0.01 60 1013.7
20260905192058 90 137 6.0 11.0 0.00 0.01 0.01 59 1013.8
20260905191557 90 122 3.0 11.0 0.00 0.01 0.01 60 1013.8
20260905191100 89 175 4.0 10.0 0.00 0.01 0.01 60 1013.8
20260905190556 89 152 4.0 10.0 0.00 0.01 0.01 60 1013.8
20260905190056 89 181 3.0 10.0 0.00 0.01 0.01 62 1013.9
20260905185556 88 98 6.0 10.0 0.00 0.01 0.01 62 1013.9
20260905185100 88 181 3.0 9.0 0.00 0.01 0.01 62 1013.9
20260905184603 87 114 2.0 12.0 0.00 0.01 0.01 63 1013.9
20260905184054 88 139 5.0 12.0 0.00 0.01 0.01 61 1014.0
20260905183555 89 110 4.0 9.0 0.00 0.01 0.01 60 1014.0
20260905183053 90 178 5.0 9.0 0.00 0.01 0.01 58 1014.1
20260905182552 90 134 3.0 10.0 0.00 0.01 0.01 59 1014.2
20260905182054 90 132 4.0 11.0 0.00 0.01 0.01 59 1014.2
20260905181551 89 172 3.0 10.0 0.00 0.01 0.01 60 1014.3
20260905181051 89 203 3.0 13.0 0.00 0.01 0.01 60 1014.2
20260905180550 89 161 5.0 13.0 0.00 0.01 0.01 62 1014.3
20260905180047 88 151 3.0 9.0 0.00 0.01 0.01 62 1014.3
20260905175547 88 148 3.0 10.0 0.00 0.01 0.01 63 1014.4
20260905175048 88 160 4.0 10.0 0.00 0.01 0.01 63 1014.5
20260905174546 88 198 4.0 10.0 0.00 0.01 0.01 62 1014.5
20260905174047 88 165 5.0 10.0 0.00 0.01 0.01 62 1014.5
20260905173544 88 201 5.0 10.0 0.00 0.01 0.01 62 1014.6
20260905173045 87 172 3.0 8.0 0.00 0.01 0.01 63 1014.7
20260905172544 86 109 3.0 8.0 0.00 0.01 0.01 63 1014.8
20260905172044 87 156 4.0 8.0 0.00 0.01 0.01 64 1015.0
20260905171557 86 116 3.0 8.0 0.00 0.01 0.01 64 1015.0
20260905171043 85 204 3.0 9.0 0.00 0.01 0.01 65 1015.1
20260905170543 85 131 2.0 9.0 0.00 0.01 0.01 65 1015.2
20260905170047 86 167 5.0 11.0 0.00 0.01 0.01 64 1015.2
20260905165543 86 137 4.0 11.0 0.00 0.01 0.01 64 1015.3
20260905165043 87 146 5.0 11.0 0.00 0.01 0.01 64 1015.2
20260905164547 87 122 4.0 10.0 0.00 0.01 0.01 64 1015.2
20260905164043 87 127 3.0 9.0 0.00 0.01 0.01 64 1015.2
20260905163542 87 164 4.0 9.0 0.00 0.01 0.01 64 1015.2
20260905163042 87 113 2.0 8.0 0.00 0.01 0.01 63 1015.2
20260905162542 87 158 2.0 8.0 0.00 0.01 0.01 63 1015.3
20260905162040 88 143 2.0 9.0 0.00 0.01 0.01 63 1015.4
20260905161543 87 148 4.0 9.0 0.00 0.01 0.01 63 1015.4
20260905161039 87 122 2.0 8.0 0.00 0.01 0.01 65 1015.4
20260905160538 86 161 2.0 8.0 0.00 0.01 0.01 65 1015.6
20260905160046 86 148 3.0 11.0 0.00 0.01 0.01 65 1015.6
20260905155538 86 166 5.0 11.0 0.00 0.01 0.01 65 1015.7
20260905155037 86 188 5.0 9.0 0.00 0.01 0.01 64 1015.8
20260905154551 85 188 4.0 7.0 0.00 0.01 0.01 65 1015.9
20260905154037 85 217 2.0 8.0 0.00 0.01 0.01 65 1016.0
20260905153539 86 210 5.0 8.0 0.00 0.01 0.01 64 1016.0
20260905153036 86 120 3.0 8.0 0.00 0.01 0.01 64 1015.9
20260905152537 86 202 2.0 7.0 0.00 0.01 0.01 65 1016.1
20260905152037 85 218 4.0 7.0 0.00 0.01 0.01 64 1016.1
20260905151538 85 179 3.0 7.0 0.00 0.01 0.01 65 1016.1
20260905151035 85 214 4.0 7.0 0.00 0.01 0.01 65 1016.2
20260905150535 84 192 2.0 9.0 0.00 0.01 0.01 66 1016.3
20260905150036 84 206 4.0 10.0 0.00 0.01 0.01 66 1016.2
20260905145536 84 136 5.0 10.0 0.00 0.01 0.01 65 1016.2
20260905145037 85 155 6.0 10.0 0.00 0.01 0.01 65 1016.2
20260905144548 85 137 5.0 10.0 0.00 0.01 0.01 64 1016.3
20260905144034 85 160 3.0 10.0 0.00 0.01 0.01 64 1016.2
20260905143535 85 153 2.0 8.0 0.00 0.01 0.01 65 1016.3
20260905143035 85 118 4.0 9.0 0.00 0.01 0.01 64 1016.3
20260905142538 85 118 3.0 9.0 0.01 0.01 0.01 65 1016.4
20260905142034 85 139 3.0 7.0 0.01 0.01 0.01 65 1016.4
20260905141534 84 163 1.0 6.0 0.01 0.01 0.01 66 1016.6
20260905141034 84 113 3.0 7.0 0.01 0.01 0.01 67 1016.6
20260905140534 84 98 3.0 7.0 0.01 0.01 0.01 67 1016.5
20260905140038 84 125 4.0 7.0 0.01 0.01 0.01 67 1016.5
20260905135534 83 122 1.0 9.0 0.01 0.01 0.01 67 1016.5
20260905135033 83 119 3.0 9.0 0.01 0.01 0.01 67 1016.6
20260905134533 83 108 2.0 9.0 0.01 0.01 0.01 67 1016.6
20260905134032 83 92 2.0 9.0 0.01 0.01 0.01 67 1016.5
20260905133532 83 94 3.0 8.0 0.01 0.01 0.01 66 1016.5
20260905133032 84 82 4.0 8.0 0.01 0.01 0.01 66 1016.4
20260905132532 84 141 1.0 6.0 0.00 0.00 0.00 65 1016.3
20260905132032 85 134 2.0 8.0 0.00 0.00 0.00 65 1016.3
20260905131531 86 155 3.0 8.0 0.00 0.00 0.00 64 1016.2
20260905131031 86 160 3.0 6.0 0.00 0.00 0.00 64 1016.2
20260905130531 86 129 2.0 5.0 0.00 0.00 0.00 64 1016.2
20260905130029 84 66 0.0 4.0 0.00 0.00 0.00 66 1016.2
20260905125528 83 222 0.0 0.0 0.00 0.00 0.00 67 1016.3
20260905125027 82 77 0.0 0.0 0.00 0.00 0.00 69 1016.4
20260905124532 81 293 0.0 0.0 0.00 0.00 0.00 70 1016.4
20260905124028 80 293 0.0 0.0 0.00 0.00 0.00 70 1016.4
20260905123522 80 312 0.0 0.0 0.00 0.00 0.00 70 1016.4
20260905123022 80 310 0.0 0.0 0.00 0.00 0.00 71 1016.4
20260905122527 80 314 0.0 0.0 0.00 0.00 0.00 71 1016.4
20260905122021 79 299 0.0 0.0 0.00 0.00 0.00 71 1016.3
20260905121521 79 290 0.0 0.0 0.00 0.00 0.00 71 1016.2
20260905121021 79 290 0.0 0.0 0.00 0.00 0.00 71 1016.2
20260905120521 79 290 0.0 0.0 0.00 0.00 0.00 71 1016.1
20260905120020 79 319 0.0 0.0 0.00 0.00 0.00 71 1016.0
20260905115521 79 317 0.0 0.0 0.00 0.01 0.00 71 1016.1
20260905115022 79 317 0.0 0.0 0.00 0.01 0.00 71 1016.0
20260905114520 78 317 0.0 0.0 0.00 0.01 0.00 71 1015.9
20260905114018 78 317 0.0 0.0 0.00 0.01 0.00 71 1015.9
20260905113522 78 324 0.0 0.0 0.00 0.01 0.00 71 1015.8
20260905113019 78 331 0.0 0.0 0.00 0.01 0.00 71 1015.8
20260905112518 78 328 0.0 0.0 0.00 0.01 0.00 72 1015.7
20260905112018 78 328 0.0 0.0 0.00 0.01 0.00 73 1015.8
20260905111517 78 328 0.0 0.0 0.00 0.01 0.00 73 1015.7
20260905111017 78 328 0.0 0.0 0.00 0.01 0.00 74 1015.7
20260905110520 77 332 0.0 0.0 0.00 0.01 0.00 74 1015.6
20260905110017 77 338 0.0 1.0 0.00 0.01 0.00 75 1015.5
20260905105516 77 340 0.0 1.0 0.00 0.01 0.00 75 1015.4
20260905105020 77 339 0.0 1.0 0.00 0.01 0.00 75 1015.3
20260905104524 76 326 0.0 1.0 0.00 0.01 0.00 76 1015.4
20260905104014 0 0.0 0.0 0.00 0.01 0.00 1015.4
20260905103513 0 0.0 0.0 0.00 0.01 0.00 1015.3
20260905103014 0 0.0 0.0 0.00 0.01 0.00 1015.3
20260905102510 0 0.0 0.0 0.00 0.01 0.00 1015.3
20260905102009 0 0.0 0.0 0.00 0.01 0.00 1015.2
20260905101508 0 0.0 0.0 0.00 0.01 0.00 1015.2
20260905101006 0 0.0 0.0 0.00 0.01 0.00 1015.3
20260905100505 0 0.0 0.0 0.00 0.01 0.00 1015.3
20260905100006 0 0.0 0.0 0.00 0.01 0.00 1015.3
20260905095502 0 0.0 0.0 0.00 0.01 0.00 1015.2
20260905095001 0 0.0 0.0 0.00 0.01 0.00 1015.2
20260905094609 0 0.0 0.0 0.00 0.01 0.00 1015.1
20260905094059 0 0.0 0.0 0.00 0.01 0.00 1014.9
20260905093558 0 0.0 0.0 0.00 0.01 0.00 1014.8
20260905093057 0 0.0 0.0 0.00 0.01 0.00 1014.8
20260905092556 0 0.0 0.0 0.00 0.01 0.00 1014.9
20260905092053 0 0.0 0.0 0.00 0.01 0.00 1014.9
20260905091605 0 0.0 0.0 0.00 0.01 0.00 1014.9
20260905091051 0 0.0 0.0 0.00 0.01 0.00 1014.8
20260905090549 0 0.0 0.0 0.00 0.01 0.00 1014.7
20260905090048 0 0.0 0.0 0.00 0.01 0.00 1014.7
20260905085547 0 0.0 0.0 0.00 0.01 0.00 1014.7
20260905085047 0 0.0 0.0 0.00 0.01 0.00 1014.7
20260905084546 0 0.0 0.0 0.00 0.01 0.00 1014.8
20260905084042 0 18 0.0 2.0 0.00 0.01 0.00 1014.8
20260905083548 0 18 0.0 2.0 0.00 0.01 0.00 1014.9
20260905083040 76 58 0.0 2.0 0.00 0.01 0.00 75 1014.9
20260905082540 76 44 0.0 1.0 0.00 0.01 0.00 75 1014.8
20260905082042 76 49 0.0 1.0 0.00 0.01 0.00 75 1014.8
20260905081543 76 290 0.0 0.0 0.00 0.01 0.00 75 1014.7
20260905081039 77 286 0.0 0.0 0.00 0.01 0.00 75 1014.8
20260905080539 77 318 0.0 0.0 0.00 0.01 0.00 75 1014.7
20260905080051 77 341 0.0 0.0 0.00 0.01 0.00 75 1014.6
20260905075538 77 23 0.0 0.0 0.00 0.01 0.00 75 1014.6
20260905075041 77 25 0.0 0.0 0.00 0.01 0.00 75 1014.6
20260905074538 77 27 0.0 0.0 0.00 0.01 0.00 75 1014.6
20260905074038 76 288 0.0 0.0 0.00 0.01 0.00 75 1014.6
20260905073537 76 287 0.0 0.0 0.00 0.01 0.00 75 1014.6
20260905073043 76 287 0.0 1.0 0.00 0.01 0.00 74 1014.7
20260905072535 76 310 0.0 1.0 0.00 0.01 0.00 74 1014.7
20260905072037 77 311 0.0 1.0 0.00 0.01 0.00 75 1014.7
20260905071534 77 342 0.0 2.0 0.00 0.01 0.00 75 1014.8
20260905071038 77 357 0.0 2.0 0.00 0.01 0.00 75 1014.8
20260905070533 76 333 0.0 2.0 0.00 0.01 0.00 75 1014.9
20260905070043 76 321 0.0 2.0 0.00 0.01 0.00 72 1015.0
20260905065530 76 315 0.0 0.0 0.00 0.01 0.00 72 1015.0
20260905065033 76 313 0.0 0.0 0.00 0.01 0.00 72 1015.1
20260905064530 76 312 0.0 0.0 0.00 0.01 0.00 72 1015.0
20260905064029 76 310 0.0 0.0 0.00 0.01 0.00 72 1015.1
20260905063528 76 331 0.0 0.0 0.00 0.01 0.00 71 1015.2
20260905063027 76 331 0.0 0.0 0.00 0.01 0.00 71 1015.2
20260905062528 76 336 0.0 0.0 0.00 0.01 0.00 70 1015.3
20260905062025 76 340 0.0 0.0 0.00 0.01 0.00 70 1015.4
20260905061539 77 304 0.0 0.0 0.00 0.01 0.00 69 1015.4
20260905061024 77 239 0.0 0.0 0.00 0.01 0.00 69 1015.4
20260905060524 77 230 0.0 0.0 0.00 0.01 0.00 69 1015.4
20260905060022 78 230 0.0 0.0 0.00 0.01 0.00 69 1015.5
20260905055520 78 230 0.0 1.0 0.00 0.01 0.00 69 1015.6
20260905055022 78 230 0.0 1.0 0.00 0.01 0.00 68 1015.7
20260905054520 78 212 0.0 1.0 0.00 0.01 0.00 68 1015.7
20260905054017 78 212 0.0 1.0 0.00 0.01 0.00 68 1015.7
20260905053517 78 189 0.0 0.0 0.00 0.01 0.00 68 1015.7
20260905053020 79 188 0.0 0.0 0.00 0.01 0.00 67 1015.8
20260905052514 79 145 0.0 1.0 0.00 0.01 0.00 68 1016.0
20260905052016 79 141 0.0 1.0 0.00 0.01 0.00 68 1016.0
20260905051514 79 137 0.0 1.0 0.00 0.01 0.00 68 1016.1
20260905051013 79 137 0.0 1.0 0.00 0.01 0.00 68 1016.1
20260905050514 79 121 0.0 1.0 0.00 0.01 0.00 68 1016.1
20260905050013 79 170 0.0 1.0 0.00 0.01 0.00 68 1016.1
20260905045512 79 146 0.0 1.0 0.00 0.01 0.00 68 1016.2
20260905045011 79 121 0.0 1.0 0.00 0.01 0.00 67 1016.4
20260905044516 79 151 0.0 1.0 0.00 0.01 0.00 67 1016.3
20260905044009 79 145 0.0 1.0 0.00 0.01 0.00 67 1016.3
20260905043509 79 145 0.0 1.0 0.00 0.01 0.00 67 1016.3
20260905043009 79 141 0.0 1.0 0.00 0.01 0.00 67 1016.3
20260905042511 79 139 0.0 1.0 0.00 0.01 0.00 67 1016.3
20260905042009 79 127 0.0 1.0 0.00 0.01 0.00 67 1016.3
20260905041511 79 137 0.0 1.0 0.00 0.01 0.00 67 1016.3
20260905041006 79 122 0.0 1.0 0.00 0.01 0.00 67 1016.4
20260905040507 79 163 0.0 1.0 0.00 0.01 0.00 67 1016.5
20260905040012 80 149 0.0 1.0 0.00 0.01 0.00 67 1016.4
20260905035506 79 155 0.0 1.0 0.00 0.01 0.01 67 1016.4
20260905035005 80 124 0.0 1.0 0.00 0.01 0.01 67 1016.5
20260905034509 80 160 0.0 1.0 0.00 0.01 0.01 67 1016.6
20260905034004 80 150 0.0 1.0 0.00 0.01 0.01 67 1016.6
20260905033504 80 136 0.0 1.0 0.00 0.01 0.01 66 1016.6
20260905033004 80 157 0.0 1.0 0.00 0.01 0.01 66 1016.6
20260905032508 80 162 0.0 1.0 0.00 0.01 0.01 66 1016.7
20260905032004 80 154 0.0 1.0 0.00 0.01 0.01 66 1016.6
20260905031504 80 134 0.0 1.0 0.00 0.01 0.01 66 1016.7
20260905031003 80 167 0.0 0.0 0.00 0.01 0.01 66 1016.7
20260905030504 80 168 0.0 0.0 0.00 0.01 0.01 66 1016.9
20260905030004 80 168 0.0 1.0 0.00 0.01 0.01 66 1016.9
20260905025506 80 167 0.0 1.0 0.00 0.01 0.01 66 1017.0
20260905025006 80 167 0.0 1.0 0.00 0.01 0.01 66 1017.0
20260905024504 80 173 0.0 1.0 0.00 0.01 0.01 65 1017.0
20260905024004 80 173 0.0 0.0 0.00 0.01 0.01 65 1017.2
20260905023502 80 173 0.0 0.0 0.00 0.01 0.01 65 1017.3
20260905023003 80 173 0.0 1.0 0.00 0.01 0.01 65 1017.3
20260905022502 80 173 0.0 1.0 0.00 0.01 0.01 65 1017.3
20260905022002 81 155 0.0 1.0 0.00 0.01 0.01 65 1017.3
20260905021502 81 146 0.0 1.0 0.00 0.01 0.01 65 1017.5
20260905021003 81 146 0.0 1.0 0.00 0.01 0.01 65 1017.4
20260905020503 81 146 0.0 1.0 0.00 0.01 0.01 65 1017.4
20260905020001 81 145 0.0 1.0 0.00 0.01 0.01 65 1017.4
20260905015502 81 139 0.0 1.0 0.00 0.01 0.01 65 1017.4
20260905015002 81 134 0.0 4.0 0.00 0.01 0.01 65 1017.4
20260905014503 81 113 1.0 4.0 0.00 0.01 0.01 65 1017.4
20260905014100 81 110 0.0 2.0 0.00 0.01 0.01 65 1017.3
20260905013601 81 117 0.0 3.0 0.00 0.01 0.01 65 1017.2
20260905013103 81 96 0.0 1.0 0.00 0.01 0.01 65 1017.2
20260905012604 81 130 0.0 1.0 0.00 0.01 0.01 65 1017.1
20260905012100 81 130 0.0 1.0 0.00 0.01 0.01 65 1016.9
20260905011559 81 146 0.0 1.0 0.00 0.01 0.01 65 1016.9
20260905011101 81 141 0.0 2.0 0.00 0.01 0.01 65 1016.8
20260905010559 81 129 0.0 2.0 0.00 0.01 0.01 65 1016.9
20260905010106 81 115 0.0 2.0 0.00 0.01 0.01 65 1016.8
20260905005559 81 133 0.0 2.0 0.00 0.01 0.01 65 1016.7
20260905005059 82 120 0.0 2.0 0.00 0.01 0.01 65 1016.7
20260905004612 82 171 0.0 1.0 0.00 0.01 0.01 65 1016.6
20260905004058 82 159 0.0 1.0 0.00 0.01 0.01 65 1016.6
20260905003558 82 124 0.0 4.0 0.00 0.01 0.01 64 1016.5
20260905003158 82 157 0.0 4.0 0.00 0.01 0.01 64 1016.4
20260905002557 82 157 0.0 5.0 0.00 0.01 0.01 64 1016.3
20260905002100 82 141 1.0 5.0 0.00 0.01 0.01 64 1016.3
20260905001558 82 122 1.0 4.0 0.00 0.01 0.01 64 1016.3
20260905001058 82 108 1.0 4.0 0.00 0.01 0.01 64 1016.3